Time,TemperatureF,DewpointF,PressureIn,WindDirection,WindDirectionDegrees,WindSpeedMPH,WindSpeedGustMPH,Humidity,HourlyPrecipIn,Conditions,Clouds,dailyrainin,SoftwareType,DateUTC
2013-10-23 00:13:00,40.0,34.0,29.89,East,97,0.0,0.0,79,0.00,,,0.00,weatherlink.com 1.10,2013-10-23 07:13:00,
2013-10-23 00:28:00,39.5,34.0,29.89,East,97,0.0,2.0,80,0.00,,,0.00,weatherlink.com 1.10,2013-10-23 07:28:00,
2013-10-23 00:43:00,39.1,34.0,29.89,East,97,0.0,0.0,82,0.00,,,0.00,weatherlink.com 1.10,2013-10-23 07:43:00,
2013-10-23 00:58:00,38.7,34.0,29.89,East,97,0.0,1.0,82,0.00,,,0.00,weatherlink.com 1.10,2013-10-23 07:58:00,
2013-10-23 01:13:00,38.6,33.0,29.89,East,97,0.0,1.0,81,0.00,,,0.00,weatherlink.com 1.10,2013-10-23 08:13:00,
2013-10-23 01:28:00,38.1,32.0,29.89,East,97,0.0,0.0,80,0.00,,,0.00,weatherlink.com 1.10,2013-10-23 08:28:00,
2013-10-23 01:43:00,37.7,33.0,29.89,East,97,0.0,0.0,83,0.00,,,0.00,weatherlink.com 1.10,2013-10-23 08:43:00,
2013-10-23 01:58:00,37.1,32.0,29.89,East,97,0.0,0.0,83,0.00,,,0.00,weatherlink.com 1.10,2013-10-23 08:58:00,
2013-10-23 02:13:00,36.4,32.0,29.88,East,97,0.0,0.0,84,0.00,,,0.00,weatherlink.com 1.10,2013-10-23 09:13:00,
2013-10-23 02:28:00,35.8,32.0,29.88,East,97,0.0,0.0,86,0.00,,,0.00,weatherlink.com 1.10,2013-10-23 09:28:00,
2013-10-23 02:43:00,35.8,32.0,29.88,East,97,0.0,0.0,86,0.00,,,0.00,weatherlink.com 1.10,2013-10-23 09:43:00,
2013-10-23 02:58:00,35.3,32.0,29.88,East,97,0.0,0.0,86,0.00,,,0.00,weatherlink.com 1.10,2013-10-23 09:58:00,
2013-10-23 03:13:00,34.8,31.0,29.88,East,97,0.0,0.0,87,0.00,,,0.00,weatherlink.com 1.10,2013-10-23 10:13:00,
2013-10-23 03:28:00,34.7,32.0,29.88,East,97,0.0,0.0,89,0.00,,,0.00,weatherlink.com 1.10,2013-10-23 10:28:00,
2013-10-23 03:43:00,34.5,32.0,29.88,East,97,0.0,0.0,89,0.00,,,0.00,weatherlink.com 1.10,2013-10-23 10:43:00,
2013-10-23 03:58:00,34.1,32.0,29.88,East,97,0.0,0.0,90,0.00,,,0.00,weatherlink.com 1.10,2013-10-23 10:58:00,
2013-10-23 04:13:00,33.8,31.0,29.88,East,97,0.0,0.0,90,0.00,,,0.00,weatherlink.com 1.10,2013-10-23 11:13:00,
2013-10-23 04:28:00,33.6,31.0,29.88,East,97,0.0,0.0,91,0.00,,,0.00,weatherlink.com 1.10,2013-10-23 11:28:00,
2013-10-23 04:43:00,33.6,31.0,29.89,East,97,0.0,1.0,91,0.00,,,0.00,weatherlink.com 1.10,2013-10-23 11:43:00,
2013-10-23 04:58:00,33.2,31.0,29.89,East,97,0.0,0.0,91,0.00,,,0.00,weatherlink.com 1.10,2013-10-23 11:58:00,
2013-10-23 05:13:00,33.0,31.0,29.89,East,97,0.0,0.0,91,0.00,,,0.00,weatherlink.com 1.10,2013-10-23 12:13:00,
2013-10-23 05:28:00,32.8,31.0,29.90,East,97,0.0,0.0,91,0.00,,,0.00,weatherlink.com 1.10,2013-10-23 12:28:00,
2013-10-23 05:43:00,32.6,31.0,29.89,East,97,0.0,0.0,92,0.00,,,0.00,weatherlink.com 1.10,2013-10-23 12:43:00,
2013-10-23 05:58:00,32.2,30.0,29.90,East,97,0.0,0.0,91,0.00,,,0.00,weatherlink.com 1.10,2013-10-23 12:58:00,
2013-10-23 06:13:00,32.0,30.0,29.90,East,97,0.0,1.0,92,0.00,,,0.00,weatherlink.com 1.10,2013-10-23 13:13:00,
2013-10-23 06:28:00,31.7,29.0,29.90,East,97,0.0,0.0,91,0.00,,,0.00,weatherlink.com 1.10,2013-10-23 13:28:00,
2013-10-23 06:43:00,31.4,29.0,29.90,East,97,0.0,0.0,91,0.00,,,0.00,weatherlink.com 1.10,2013-10-23 13:43:00,
2013-10-23 06:58:00,31.4,29.0,29.91,East,97,0.0,0.0,91,0.00,,,0.00,weatherlink.com 1.10,2013-10-23 13:58:00,
2013-10-23 07:13:00,32.0,30.0,29.91,East,97,0.0,0.0,91,0.00,,,0.00,weatherlink.com 1.10,2013-10-23 14:13:00,
2013-10-23 07:29:00,33.0,31.0,29.91,East,97,0.0,0.0,91,0.00,,,0.00,weatherlink.com 1.10,2013-10-23 14:29:00,
2013-10-23 07:44:00,35.5,32.0,29.92,East,97,0.0,0.0,86,0.00,,,0.00,weatherlink.com 1.10,2013-10-23 14:44:00,
2013-10-23 07:59:00,38.7,34.0,29.92,East,97,0.0,1.0,83,0.00,,,0.00,weatherlink.com 1.10,2013-10-23 14:59:00,
2013-10-23 08:14:00,42.3,35.0,29.93,East,97,0.0,0.0,74,0.00,,,0.00,weatherlink.com 1.10,2013-10-23 15:14:00,
2013-10-23 08:29:00,45.7,36.0,29.92,East,97,0.0,0.0,70,0.00,,,0.00,weatherlink.com 1.10,2013-10-23 15:29:00,
2013-10-23 08:44:00,48.7,37.0,29.92,East,97,0.0,1.0,64,0.00,,,0.00,weatherlink.com 1.10,2013-10-23 15:44:00,
2013-10-23 08:59:00,51.3,35.0,29.92,East,97,0.0,0.0,55,0.00,,,0.00,weatherlink.com 1.10,2013-10-23 15:59:00,
2013-10-23 09:14:00,54.0,35.0,29.91,East,97,0.0,1.0,49,0.00,,,0.00,weatherlink.com 1.10,2013-10-23 16:14:00,
2013-10-23 09:29:00,56.8,38.0,29.90,East,97,0.0,1.0,50,0.00,,,0.00,weatherlink.com 1.10,2013-10-23 16:29:00,
2013-10-23 09:44:00,60.3,38.0,29.89,East,98,0.0,2.0,44,0.00,,,0.00,weatherlink.com 1.10,2013-10-23 16:44:00,
2013-10-23 09:59:00,63.7,35.0,29.89,SW,221,0.0,2.0,35,0.00,,,0.00,weatherlink.com 1.10,2013-10-23 16:59:00,
2013-10-23 10:14:00,66.3,35.0,29.89,WSW,249,1.0,2.0,31,0.00,,,0.00,weatherlink.com 1.10,2013-10-23 17:14:00,
2013-10-23 10:29:00,67.8,33.0,29.88,WSW,249,0.0,1.0,28,0.00,,,0.00,weatherlink.com 1.10,2013-10-23 17:29:00,
2013-10-23 10:44:00,69.8,34.0,29.88,South,170,1.0,2.0,27,0.00,,,0.00,weatherlink.com 1.10,2013-10-23 17:44:00,
2013-10-23 10:59:00,71.3,34.0,29.87,SE,140,0.0,2.0,25,0.00,,,0.00,weatherlink.com 1.10,2013-10-23 17:59:00,
2013-10-23 11:14:00,72.3,35.0,29.86,SW,232,1.0,3.0,25,0.00,,,0.00,weatherlink.com 1.10,2013-10-23 18:14:00,
2013-10-23 11:30:00,73.4,34.0,29.85,SSE,164,1.0,4.0,24,0.00,,,0.00,weatherlink.com 1.10,2013-10-23 18:30:00,
2013-10-23 11:45:00,74.3,34.0,29.84,NNW,327,0.0,4.0,23,0.00,,,0.00,weatherlink.com 1.10,2013-10-23 18:45:00,
2013-10-23 12:15:00,75.5,34.0,29.83,SE,138,2.0,5.0,22,0.00,,,0.00,weatherlink.com 1.10,2013-10-23 19:15:00,
2013-10-23 12:50:00,77.4,33.0,29.80,East,93,1.0,6.0,20,0.00,,,0.00,weatherlink.com 1.10,2013-10-23 19:50:00,
2013-10-23 13:32:00,79.6,35.0,29.78,ESE,103,3.0,5.0,20,0.00,,,0.00,weatherlink.com 1.10,2013-10-23 20:32:00,
2013-10-23 15:13:00,83.0,29.0,29.75,ESE,109,0.0,5.0,14,0.00,,,0.00,weatherlink.com 1.10,2013-10-23 22:13:00,
2013-10-23 15:51:00,83.4,28.0,29.74,ENE,57,3.0,4.0,13,0.00,,,0.00,weatherlink.com 1.10,2013-10-23 22:51:00,
2013-10-23 16:05:00,82.8,29.0,29.74,NE,49,0.0,3.0,14,0.00,,,0.00,weatherlink.com 1.10,2013-10-23 23:05:00,
2013-10-23 16:16:00,82.5,32.0,29.74,NE,43,0.0,2.0,16,0.00,,,0.00,weatherlink.com 1.10,2013-10-23 23:16:00,
2013-10-23 16:31:00,81.6,28.0,29.73,SE,133,6.0,7.0,14,0.00,,,0.00,weatherlink.com 1.10,2013-10-23 23:31:00,
2013-10-23 16:46:00,80.4,30.0,29.74,South,175,0.0,3.0,16,0.00,,,0.00,weatherlink.com 1.10,2013-10-23 23:46:00,
2013-10-23 17:01:00,78.9,32.0,29.74,SSE,162,0.0,2.0,18,0.00,,,0.00,weatherlink.com 1.10,2013-10-24 00:01:00,
2013-10-23 17:16:00,77.0,35.0,29.74,South,169,0.0,6.0,22,0.00,,,0.00,weatherlink.com 1.10,2013-10-24 00:16:00,
2013-10-23 17:31:00,74.2,37.0,29.74,South,169,0.0,1.0,26,0.00,,,0.00,weatherlink.com 1.10,2013-10-24 00:31:00,
2013-10-23 17:46:00,71.2,35.0,29.74,South,169,0.0,1.0,27,0.00,,,0.00,weatherlink.com 1.10,2013-10-24 00:46:00,
2013-10-23 18:01:00,68.3,37.0,29.75,South,169,0.0,0.0,32,0.00,,,0.00,weatherlink.com 1.10,2013-10-24 01:01:00,
2013-10-23 18:16:00,65.4,37.0,29.75,South,169,0.0,0.0,35,0.00,,,0.00,weatherlink.com 1.10,2013-10-24 01:16:00,
2013-10-23 18:31:00,63.2,38.0,29.75,South,169,0.0,0.0,40,0.00,,,0.00,weatherlink.com 1.10,2013-10-24 01:31:00,
2013-10-23 18:46:00,61.1,38.0,29.76,South,169,0.0,1.0,42,0.00,,,0.00,weatherlink.com 1.10,2013-10-24 01:46:00,
2013-10-23 19:01:00,59.4,39.0,29.76,South,169,0.0,0.0,47,0.00,,,0.00,weatherlink.com 1.10,2013-10-24 02:01:00,
2013-10-23 19:16:00,58.1,38.0,29.77,South,169,0.0,1.0,48,0.00,,,0.00,weatherlink.com 1.10,2013-10-24 02:16:00,
2013-10-23 19:31:00,56.9,38.0,29.77,South,169,0.0,2.0,49,0.00,,,0.00,weatherlink.com 1.10,2013-10-24 02:31:00,
2013-10-23 19:46:00,55.8,37.0,29.77,South,169,0.0,1.0,49,0.00,,,0.00,weatherlink.com 1.10,2013-10-24 02:46:00,
2013-10-23 20:01:00,55.4,37.0,29.78,South,169,0.0,1.0,50,0.00,,,0.00,weatherlink.com 1.10,2013-10-24 03:01:00,
2013-10-23 20:16:00,55.0,37.0,29.78,South,173,0.0,1.0,51,0.00,,,0.00,weatherlink.com 1.10,2013-10-24 03:16:00,
2013-10-23 20:31:00,54.4,37.0,29.78,SW,221,0.0,1.0,52,0.00,,,0.00,weatherlink.com 1.10,2013-10-24 03:31:00,
2013-10-23 20:46:00,53.7,37.0,29.79,SW,221,0.0,0.0,54,0.00,,,0.00,weatherlink.com 1.10,2013-10-24 03:46:00,
2013-10-23 21:01:00,52.9,37.0,29.79,SW,221,0.0,0.0,55,0.00,,,0.00,weatherlink.com 1.10,2013-10-24 04:01:00,
2013-10-23 21:16:00,51.9,37.0,29.79,SW,221,0.0,0.0,58,0.00,,,0.00,weatherlink.com 1.10,2013-10-24 04:16:00,
2013-10-23 21:31:00,51.1,36.0,29.79,SW,221,0.0,2.0,57,0.00,,,0.00,weatherlink.com 1.10,2013-10-24 04:31:00,
2013-10-23 21:46:00,50.8,37.0,29.79,SW,221,0.0,2.0,60,0.00,,,0.00,weatherlink.com 1.10,2013-10-24 04:46:00,
2013-10-23 22:01:00,50.5,38.0,29.79,SW,221,0.0,0.0,62,0.00,,,0.00,weatherlink.com 1.10,2013-10-24 05:01:00,
2013-10-23 22:16:00,50.1,39.0,29.79,SW,221,0.0,0.0,66,0.00,,,0.00,weatherlink.com 1.10,2013-10-24 05:16:00,
2013-10-23 22:31:00,49.3,38.0,29.79,SW,221,1.0,2.0,65,0.00,,,0.00,weatherlink.com 1.10,2013-10-24 05:31:00,
2013-10-23 22:46:00,48.6,38.0,29.80,SW,221,0.0,1.0,66,0.00,,,0.00,weatherlink.com 1.10,2013-10-24 05:46:00,
2013-10-23 23:01:00,47.9,37.0,29.80,SW,221,0.0,1.0,66,0.00,,,0.00,weatherlink.com 1.10,2013-10-24 06:01:00,
2013-10-23 23:16:00,47.1,37.0,29.79,SW,221,0.0,1.0,68,0.00,,,0.00,weatherlink.com 1.10,2013-10-24 06:16:00,
2013-10-23 23:31:00,46.4,37.0,29.79,SW,221,0.0,0.0,70,0.00,,,0.00,weatherlink.com 1.10,2013-10-24 06:31:00,
2013-10-23 23:46:00,45.6,37.0,29.80,SW,221,0.0,1.0,73,0.00,,,0.00,weatherlink.com 1.10,2013-10-24 06:46:00,